Share your knowledge with us! FAST registration!
Home Climate Disasters Flood Nature Places Storms Weather Weather Record Other Blogs Quizzes Diaporama Forums
Email
Password
Login |
Interestings Infos
Global Warming
Sea Ice Extent
Sea Ice Center
Co2
Future Climate Change
Live Hurricanes informations
Sea Surface Temperatures
Hurricanes Live Cams
Interactive Map
Canada Tornadoes (+500)
Cities (+ 2.5 million)
Earthquakes (+7,000)
Highest Peaks (+ 5,000)
World's Hurricanes (6,916)
Unesco Sites (959)
US Tornadoes (+ 56,000)
World's Volcanoes (+ 1,500)
World's Caves (+ 2,400)
World's Glaciers (132,699)
Weather Records
2754 Weather Stations
Highest / Lowest Temp by Country
Hurricanes
Beaufort - Saffir-Simpson
Costliest Hurricanes
Deadliest Hurricanes
Hurricane Wiki
Lowest Pressure Recorded
Number since 1848
Wind Speed Record
Tornadoes
Canada Tornadoes
Canada Stats
US Tornadoes
All USA Tornadoes statistics
Browse all US Tornadoes
Disasters
Aral Sea Pictures
Earth
Earthquake Deadliest
Earthquake Real Time
Earthquake Strongest
Richter Scale
Climate Records
Canada's Highest Peaks
Geographic
Green Houses Gases
Co2 Emissions per Capita
Rain
Temperatures Canada
United Kingdom
Temperatures USA
Demography
Cities ( + 2.5 million )
Countries Population Projections
Wiki
Wiki Climate
Aral Sea
Earth
Infographic Climat Science
Canada's Majors Tornadoes All USA Tornadoes statistics Tornadoes by States Fujita
Canadian Tornado Centre Canada Stats
US Database: Make a search to see tornadoes target and path on interactive map!
State
Fujita
Year
Month
Day
Per Page

Page 1  2  3  4  390 Results
Page 1

Montana 389 F0 to F5 tornadoes have been reported between 1950 and today..

Tornadoes combined statistics: Montana
Number of Tornadoes
389
Injured
24
Death
4
Longest Path
55.50 Mille
Total Damage
488.658 Million
Date Time State F Injured Death Damage Crop Lenght
Mile
Width
Yards
County
Affected
1952-07-19 17:30:00 MT ? 0 0 5.000 M$ - M$ 55.50 Mi 10 Fallon
1952-07-19 18:30:00 MT F3 2 1 5.000 M$ - M$ 9.10 Mi 10 Wibaux
1952-07-19 Summary MT F3 2 1 5.000 M$ - M$ 16.40 Mi 10
1953-05-24 17:00:00 MT ? 0 0 4.000 M$ - M$ 9.30 Mi 400 Wibaux
1953-06-07 19:00:00 MT ? 0 0 - M$ - M$ 0.10 Mi 10 Lewis and Clark
1953-06-23 21:55:00 MT F2 0 0 2.000 M$ - M$ 33.50 Mi 1320 Dawson
1953-06-23 22:30:00 MT ? 0 0 - M$ - M$ 0.10 Mi 10 Dawson
1953-07-30 20:00:00 MT F1 0 0 2.000 M$ - M$ 0.10 Mi 10 Roosevelt
1954-05-27 17:00:00 MT F2 0 0 3.000 M$ - M$ 0.10 Mi 23 Powder River
1954-07-09 23:00:00 MT ? 0 0 2.000 M$ - M$ 2.00 Mi 73 Valley
1954-07-26 17:00:00 MT F1 0 0 - M$ - M$ 2.70 Mi 17 Carter
1954-08-26 17:00:00 MT F2 0 0 4.000 M$ - M$ 20.90 Mi 880 McCone
1955-07-06 15:30:00 MT ? 0 0 4.000 M$ - M$ 2.00 Mi 50 Yellowstone
1955-07-06 17:30:00 MT F1 0 0 3.000 M$ - M$ 2.00 Mi 73 Treasure
1955-07-06 21:15:00 MT F1 0 0 4.000 M$ - M$ 0.10 Mi 1000 Prairie
1957-07-07 16:00:00 MT F1 0 0 2.000 M$ - M$ 1.50 Mi 20 Judith Basin
1958-06-04 17:25:00 MT ? 0 0 1.000 M$ - M$ 0.10 Mi 10 Cascade
1958-06-18 14:30:00 MT ? 0 0 2.000 M$ - M$ 0.10 Mi 10 Valley
1958-07-02 18:20:00 MT F2 2 0 6.000 M$ - M$ 0.50 Mi 50 Yellowstone
1958-08-12 17:45:00 MT ? 1 0 3.000 M$ - M$ 0.50 Mi 10 Yellowstone
1959-06-20 20:00:00 MT ? 0 0 3.000 M$ - M$ 0.10 Mi 100 Daniels
1959-06-26 17:30:00 MT F1 0 0 3.000 M$ - M$ 5.40 Mi 100 Roosevelt
1959-08-02 11:44:00 MT ? 0 0 1.000 M$ - M$ 0.10 Mi 10 Beaverhead
1960-06-15 10:35:00 MT F1 0 0 3.000 M$ - M$ 1.30 Mi 17 Gallatin
1960-06-29 20:35:00 MT ? 0 0 2.000 M$ - M$ 0.30 Mi 10 Chouteau
1960-07-22 15:25:00 MT F0 0 0 - M$ - M$ 1.00 Mi 10 Lewis and Clark
1961-06-29 16:00:00 MT ? 0 0 3.000 M$ - M$ 0.10 Mi 10 Cascade
1961-06-29 17:15:00 MT ? 1 0 6.000 M$ - M$ 15.90 Mi 10 Dawson
1962-05-17 18:00:00 MT F0 0 0 - M$ - M$ 0.10 Mi 10 Powell
1962-05-19 17:00:00 MT F2 0 0 4.000 M$ - M$ 2.00 Mi 17 Beaverhead
1962-06-14 15:45:00 MT F2 0 0 - M$ - M$ 0.10 Mi 10 Beaverhead
1962-06-22 18:30:00 MT ? 0 0 3.000 M$ - M$ 0.10 Mi 10 Richland
1962-07-01 16:15:00 MT ? 0 0 2.000 M$ - M$ 3.80 Mi 10 Hill
1962-07-14 15:45:00 MT ? 0 0 - M$ - M$ 0.10 Mi 10 Beaverhead
1962-07-18 18:00:00 MT F2 0 0 - M$ - M$ 40.60 Mi 10 Prairie Custer
Fallon
1962-07-22 18:30:00 MT ? 0 0 3.000 M$ - M$ 0.10 Mi 10 Richland
1962-08-04 20:45:00 MT F2 0 0 5.000 M$ - M$ 42.90 Mi 73 Valley
1962-08-07 22:00:00 MT F2 0 0 3.000 M$ - M$ 2.00 Mi 10 Petroleum
1963-06-05 13:00:00 MT ? 0 0 - M$ - M$ 1.50 Mi 10 Teton
1963-07-03 21:45:00 MT ? 0 0 - M$ - M$ 0.10 Mi 10 Chouteau
1963-07-24 16:35:00 MT ? 0 0 - M$ - M$ 0.50 Mi 10 Cascade
1964-04-25 15:00:00 MT F2 1 0 5.000 M$ - M$ 6.00 Mi 40 Powder River
1964-06-07 17:58:00 MT ? 0 0 - M$ - M$ 0.10 Mi 10 Yellowstone
1964-07-02 17:00:00 MT ? 0 0 - M$ - M$ 27.00 Mi 10 Teton
1964-07-18 16:00:00 MT F1 0 0 3.000 M$ - M$ 0.10 Mi 10 Powder River
1964-07-20 22:30:00 MT F2 0 0 - M$ - M$ 2.00 Mi 10 Fergus
1964-08-01 20:00:00 MT ? 0 0 - M$ - M$ 0.10 Mi 10 Roosevelt
1965-05-29 19:30:00 MT ? 0 0 2.000 M$ - M$ 0.10 Mi 10 Beaverhead
1965-06-16 19:30:00 MT ? 0 0 4.000 M$ - M$ 20.60 Mi 10 Yellowstone
1965-07-10 17:10:00 MT F2 1 0 4.000 M$ - M$ 2.00 Mi 23 Judith Basin
1965-07-10 17:15:00 MT ? 5 0 6.000 M$ - M$ 0.20 Mi 10 Chouteau
1965-07-11 21:30:00 MT F2 0 0 4.000 M$ - M$ 5.40 Mi 67 Custer
1965-07-12 15:40:00 MT ? 0 0 - M$ - M$ 0.10 Mi 10 Big Horn
1965-07-19 15:00:00 MT ? 0 0 - M$ - M$ 0.10 Mi 10 Carter
1965-08-05 17:00:00 MT ? 0 0 - M$ - M$ 0.10 Mi 10 Daniels
1965-08-22 13:00:00 MT F1 0 0 - M$ - M$ 1.50 Mi 10 Sweet Grass
1966-07-02 16:30:00 MT F2 0 0 - M$ - M$ 0.80 Mi 50 Teton
1966-07-25 18:00:00 MT F2 0 0 2.000 M$ - M$ 2.00 Mi 17 Powder River
1968-06-13 15:00:00 MT F0 0 0 2.000 M$ - M$ 0.10 Mi 10 Big Horn
1969-07-15 15:30:00 MT F1 0 0 2.000 M$ - M$ 0.10 Mi 10 Carter
1969-09-21 00:30:00 MT F2 0 0 4.000 M$ - M$ 1.00 Mi 33 Roosevelt
1970-08-06 11:00:00 MT F1 0 0 2.000 M$ - M$ 0.10 Mi 10 Valley
1971-05-04 16:15:00 MT F0 0 0 - M$ - M$ 0.50 Mi 30 Granite
1971-06-02 16:46:00 MT F0 0 0 4.000 M$ - M$ 1.00 Mi 50 Yellowstone
1971-06-02 17:20:00 MT F0 0 0 - M$ - M$ 0.10 Mi 10 Yellowstone
1971-06-03 19:05:00 MT F1 0 0 3.000 M$ - M$ 2.30 Mi 30 Fergus
1971-06-03 19:30:00 MT F1 0 0 4.000 M$ - M$ 5.00 Mi 50 Powder River
1971-06-03 19:45:00 MT F1 0 0 2.000 M$ - M$ 2.00 Mi 10 Carter
1971-06-28 20:00:00 MT F0 0 0 - M$ - M$ 2.00 Mi 10 Philli
1971-07-02 17:55:00 MT F2 0 0 2.000 M$ - M$ 10.00 Mi 250 Sheridan
1972-06-11 13:05:00 MT F1 0 0 - M$ - M$ 3.60 Mi 30 Valley
1972-06-11 13:05:00 MT F2 0 0 3.000 M$ - M$ 0.30 Mi 30 Valley
1972-06-11 14:25:00 MT F2 0 0 2.000 M$ - M$ 9.10 Mi 50 Richland
1972-06-11 14:55:00 MT F1 0 0 3.000 M$ - M$ 10.40 Mi 50 Daniels
1973-05-20 15:00:00 MT F0 0 0 1.000 M$ - M$ 0.10 Mi 17 Sweet Grass
1973-08-04 18:30:00 MT F0 0 0 4.000 M$ - M$ 0.10 Mi 10 Chouteau
1975-06-17 17:20:00 MT F0 0 0 - M$ - M$ 0.10 Mi 10 Garfield
1975-06-23 15:30:00 MT F2 1 0 4.000 M$ - M$ 0.10 Mi 10 Ravalli
1975-06-25 16:55:00 MT F2 0 0 - M$ - M$ 0.10 Mi 10 Valley
1975-06-25 17:05:00 MT F2 0 0 4.000 M$ - M$ 0.10 Mi 10 Valley
1975-06-25 17:38:00 MT F0 0 0 - M$ - M$ 0.10 Mi 10 Valley
1975-06-25 19:09:00 MT F2 0 0 - M$ - M$ 0.10 Mi 10 Custer
1975-06-25 21:45:00 MT F2 0 0 4.000 M$ - M$ 0.10 Mi 10 Richland
1975-06-27 17:30:00 MT F2 0 0 4.000 M$ - M$ 0.10 Mi 10 Dawson
1975-06-30 20:00:00 MT F2 0 0 - M$ - M$ 0.10 Mi 10 Cascade
1975-08-19 17:00:00 MT F0 0 0 - M$ - M$ 0.10 Mi 10 Fergus
1976-06-06 16:00:00 MT ? 0 0 6.000 M$ - M$ 3.00 Mi 10 Beaverhead
1976-06-08 20:05:00 MT F2 0 0 4.000 M$ - M$ 0.10 Mi 10 Fergus
1977-05-10 19:30:00 MT ? 0 0 5.000 M$ - M$ 0.10 Mi 10 Judith Basin
1977-05-10 20:00:00 MT ? 0 0 4.000 M$ - M$ 0.10 Mi 10 Judith Basin
1977-05-24 19:30:00 MT ? 0 0 4.000 M$ - M$ 0.10 Mi 10 Liberty
1977-06-01 14:27:00 MT ? 0 0 4.000 M$ - M$ 0.10 Mi 10 Glacier
1977-06-01 15:50:00 MT ? 0 0 5.000 M$ - M$ 0.10 Mi 10 Cascade
1977-06-14 16:30:00 MT ? 0 0 4.000 M$ - M$ 0.10 Mi 10 Fallon
1978-06-01 18:00:00 MT ? 0 0 - M$ - M$ 0.10 Mi 10 Dawson
1978-06-24 19:00:00 MT ? 0 0 - M$ - M$ 0.10 Mi 10 Wheatland
1978-06-24 19:45:00 MT ? 0 0 - M$ - M$ 0.10 Mi 10 Big Horn
1978-07-03 02:00:00 MT ? 0 0 - M$ - M$ 0.10 Mi 10 Petroleum
1978-07-03 17:30:00 MT ? 0 0 5.000 M$ - M$ 1.00 Mi 300 Cascade
1978-07-03 17:30:00 MT ? 0 0 5.000 M$ - M$ 1.00 Mi 300 Cascade
You must register to have full access on Record Meteo
FAST registration!
Like our Facebook page to receive more news



Record Meteo is looking for Bloggers and Forum's moderators!

Record Meteo Forum Stats

Threads: 256,382
Views: 285,820
Replies: 1


Contact Us | About Us | Privacy Policy | Terms & User Agreements | Editor's team | Advertise
Canadian Tornado Centre | Tornadoespath.com | Our Datasets | POI Files

Copyright Mai 2007 | Tue Oct 17 00:49


News: 264 | View(s): 191525:)
16/12/2012: 49,944,908